Regional Weather Roundup
Issued by NWS

Home | Current Version | Previous Version | Text Only | Print | Product List | Glossary Off
Versions: 1 2 3 4 5 6 7 8 9 10 11 12 13 14 15 16 17 18 19 20 21 22 23 24 25 26 27 28 29 30 31 32 33 34 35 36 37 38 39 40 41 42 43 44 45 46 47 48 49 50

000
ASUS43 KDMX 230201
RWRIA

WEATHER ROUNDUP FOR IOWA
NATIONAL WEATHER SERVICE DES MOINES IA
800 PM CST THU FEB 22 2018

NOTE: "FAIR" INDICATES FEW OR NO CLOUDS BELOW 12,000 FEET WITH NO
SIGNIFICANT WEATHER AND/OR OBSTRUCTIONS TO VISIBILITY.

* - THESE STATIONS ARE NOT NWS STATIONS...THUS NOT UNDER NWS
QUALITY CONTROL.  THEY ALSO DO NOT REPORT WEATHER SUCH
AS PRECIPITATION OR FOG.

IAZ001>003-012>014-020>022-031>034-043>046-230300-
   NORTHWEST IOWA

CITY           SKY/WX    TMP DP  RH WIND       PRES   REMARKS
CARROLL *      CLOUDY    30  30 100 SE12      30.16S FOG     WCI  21
CHEROKEE *     LGT SNOW  28  28 100 S6        30.18S WCI  22
DENISON *      LGT RAIN  30  30 100 SW5       30.20R WCI  25
LE MARS *      LGT SNOW  27  27 100 CALM      30.19S VSB 3/4
ORANGE CITY *  LGT SNOW  27  27 100 CALM      30.17F
SHELDON *      LGT SNOW  27  27 100 S3        30.17R
SIOUX CITY     LGT SNOW  26  26 100 W3        30.20R VSB 1
SPENCER        LGT SNOW  29  27  92 SE6       30.17F FOG     WCI  23
STORM LAKE *   MIX PCPN  28  28 100 SE13      30.15S WCI  18
$$

IAZ055>058-069>071-079>083-090>094-230300-
   SOUTHWEST IOWA

CITY           SKY/WX    TMP DP  RH WIND       PRES   REMARKS
ATLANTIC *     MIX PCPN  32  32 100 S8        30.18R WCI  25
AUDUBON *      MIX PCPN  30  28  93 CALM      30.16S
CLARINDA *     CLOUDY    32  32 100 S8        30.21R WCI  25
COUNCIL BLFS * LGT RAIN  32  32 100 SW9       30.19S WCI  24
CRESTON *      MIX PCPN  32  32 100 SE18      30.16F WCI  20
HARLAN  *      MIX PCPN  32  32 100 SW8       30.22R WCI  25
LAMONI         CLOUDY    32  30  92 SE8       30.17F FOG     WCI  25
RED OAK *      CLOUDY    32  32 100 SW7       30.20R WCI  26
SHENANDOAH *   CLOUDY    32  32 100 SW6       30.21R FOG     WCI  26
$$

IAZ047>049-059>061-072>074-084-230300-
   CENTRAL IOWA

CITY           SKY/WX    TMP DP  RH WIND       PRES   REMARKS
AMES           CLOUDY    32  31  96 SE12G21   30.20F FOG     WCI  23
ANKENY *       MIX PCPN  32  32 100 MISG      30.21F
BOONE *        MIX PCPN  32  32 100 MISG      30.17S VSB 1
CHARITON *     FOG       32  32 100 SE15      30.18F VSB 1/2 WCI  22
DES MOINES     LGT RAIN  33  31  92 SE8       30.20R FOG     WCI  26
GRINNELL*      LGT RAIN  32  32  99 E13       30.22F WCI  23
KNOXVILLE *    MIX PCPN  32  32 100 SE12      30.18F VSB 1/4 WCI  23
MARSHALLTOWN   CLOUDY    32  32 100 E16       30.20F FOG     WCI  21
NEWTON *       CLOUDY    32  32 100 SE12      30.21F FOG     WCI  23
PELLA *        LGT RAIN  33  32  98 E9        30.22F VSB 1/2 WCI  25
PERRY *        CLOUDY    32  32 100 SE14      30.18S FOG     WCI  22
$$

IAZ004>006-015-016-023>025-035-036-230300-
   NORTH CENTRAL IOWA

CITY           SKY/WX    TMP DP  RH WIND       PRES   REMARKS
CLARION *      CLOUDY    32  32 100 SE22      30.17F FOG     WCI  19
ESTHERVILLE    MIX PCPN  28  27  96 SE10      30.16F FOG     WCI  19
FORT DODGE *   MIX PCPN  32  30  92 SE13G22   30.16F WCI  22
MASON CITY     FRZ RAIN  30  28  92 SE16      30.21F FOG     WCI  19
FOREST CITY *  MIX PCPN  32  32 100 SE14G20   30.18F WCI  22
WEBSTER CITY * MIX PCPN  32  32 100 SE21      30.15F WCI  20
IOWA FALLS *   MIX PCPN  33  32  98 E15       30.20F WCI  22
$$

IAZ007>011-017>019-026>030-037>042-050>054-066-230300-
   NORTHEAST IOWA

CITY           SKY/WX    TMP DP  RH WIND       PRES   REMARKS
CEDAR RAPIDS   DRIZZLE   34  33  96 E13       30.24F FOG     WCI  25
CHARLES CITY * MIX PCPN  30  32 100 E18       30.24F WCI  18
CLINTON *      CLOUDY    36  33  89 E15       30.29F WCI  27
DECORAH *      CLOUDY    28  28 100 E12G21    30.27F FOG     WCI  18
DUBUQUE        CLOUDY    32  30  92 E12       30.30F FOG     WCI  23
MONTICELLO *   CLOUDY    34  34 100 E10       30.27F FOG     WCI  26
OELWEIN *      CLOUDY    32  32 100 E18G25    30.25F FOG     WCI  20
WATERLOO       CLOUDY    31  31 100 E14G23    30.23F FOG     WCI  21
$$

IAZ064-065-067-068-078-230300-
   EAST CENTRAL IOWA

CITY           SKY/WX    TMP DP  RH WIND       PRES   REMARKS
DAVENPORT      FOG       37  35  92 E15       30.28F VSB 1   WCI  28
IOWA CITY      CLOUDY    36  34  92 E12       30.27F FOG     WCI  28
MT. PLEASANT * CLOUDY    34  34 100 SE10      30.25F FOG     WCI  26
MUSCATINE *    CLOUDY    37  37 100 E9        30.27F FOG     WCI  31
QUAD CITIES    FOG       38  37  97 E12       30.27F VSB 1   WCI  30
$$

IAZ062-063-075>077-085>089-095>099-230300-
   SOUTHEAST IOWA

CITY           SKY/WX    TMP DP  RH WIND       PRES   REMARKS
BURLINGTON     FOG       37  37 100 E5        30.25F VSB 3/4 WCI  33
FAIRFIELD *    FOG       36  36 100 E12       30.22F VSB 1/2 WCI  27
FORT MADISON * FOG       37  37 100 E6        30.26F VSB 1   WCI  33
KEOKUK *       FOG       37  36  93 E8        30.24F VSB 1/2 WCI  31
OSKALOOSA *    FOG       33  33  99 E12       30.22F VSB 1/4 WCI  24
OTTUMWA        FOG       35  34  96 E9        30.22F VSB 1/2 WCI  28
WASHINGTON *   FOG       36  36 100 SE8       30.26F VSB 1/4 WCI  29
$$

ABBREVIATIONS USED IN REMARKS
   TC - TEMPERATURES IN CELSIUS
  WCI - WIND CHILL INDEX
   HX - HEAT INDEX
  VSB - VISIBILITY
$$





USA.gov is the U.S. government's official web portal to all federal, state and local government web resources and services.